MDT,Max TemperatureF,Mean TemperatureF,Min TemperatureF,Max Dew PointF,MeanDew PointF,Min DewpointF,Max Humidity, Mean Humidity, Min Humidity, Max Sea Level PressureIn, Mean Sea Level PressureIn, Min Sea Level PressureIn, Max VisibilityMiles, Mean VisibilityMiles, Min VisibilityMiles, Max Wind SpeedMPH, Mean Wind SpeedMPH, Max Gust SpeedMPH,PrecipitationIn, CloudCover, Events, WindDirDegrees
2013-5-1,96,76,51,41,21,4,52,17,4,30.17,29.75,29.52,10,9,4,28,11,39,0.00,2,,29
2013-5-2,60,51,42,34,23,18,62,37,20,30.50,30.40,30.21,10,8,5,30,22,39,0.00,7,,11
2013-5-3,71,52,33,18,12,7,48,24,9,30.46,30.22,29.96,10,10,1,14,6,24,0.00,0,,185
2013-5-4,78,56,36,13,10,8,33,17,7,29.96,29.90,29.83,10,10,9,9,5,16,0.00,0,,109
2013-5-5,79,62,46,19,14,9,23,15,9,30.13,30.00,29.89,10,10,10,16,6,23,0.00,0,,116
2013-5-6,82,68,55,40,29,19,40,24,15,29.97,29.87,29.75,10,10,10,16,8,23,0.00,3,Rain,150
2013-5-7,88,68,48,42,30,19,64,30,9,29.99,29.83,29.74,10,10,6,17,7,34,0.00,0,,187
2013-5-8,87,74,62,38,19,10,41,15,6,29.84,29.76,29.70,10,10,10,23,11,31,0.00,0,,246
2013-5-9,84,72,61,31,20,14,23,14,8,29.95,29.80,29.72,10,10,10,16,10,25,0.00,0,,321
2013-5-10,69,62,57,52,45,30,77,53,26,30.16,30.04,29.84,10,10,9,22,13,28,0.00,4,Rain-Thunderstorm,346
2013-5-11,79,66,54,47,40,34,67,44,21,30.25,30.14,30.07,10,10,10,22,8,28,0.00,2,,2
2013-5-12,81,64,48,40,34,29,59,34,17,30.21,30.12,30.02,10,10,10,13,6,18,0.00,0,,198
2013-5-13,84,69,54,39,31,17,45,27,8,30.15,30.08,29.98,10,10,10,14,8,22,0.00,0,,157
2013-5-14,89,72,55,47,39,31,62,31,13,30.04,29.91,29.76,10,8,1,34,13,44,0.00,1,Rain-Thunderstorm,187
2013-5-15,95,76,60,49,37,27,67,28,10,29.82,29.70,29.58,10,10,10,33,13,41,0.00,1,,270
2013-5-16,99,82,66,35,19,3,30,11,4,29.73,29.65,29.57,10,10,10,21,12,30,0.00,0,,267
2013-5-17,100,80,60,23,17,13,20,10,5,29.88,29.67,29.59,10,10,10,16,9,24,0.00,0,,202
2013-5-18,98,80,64,24,13,6,18,8,4,29.85,29.69,29.58,10,10,10,21,11,30,0.00,0,,256
2013-5-19,93,78,64,16,13,9,13,9,5,29.85,29.67,29.55,10,10,10,23,12,36,0.00,0,,254
2013-5-20,96,78,60,31,18,11,20,12,4,29.86,29.67,29.54,10,10,10,21,11,31,0.00,0,,276
2013-5-21,87,75,63,40,29,11,32,19,9,29.83,29.73,29.64,10,10,10,22,13,33,0.00,0,,339
2013-5-22,98,77,57,37,21,4,44,17,4,29.75,29.67,29.58,10,10,10,17,9,25,0.00,0,,185
2013-5-23,98,79,62,57,48,36,60,38,12,29.97,29.78,29.64,10,9,2,38,11,45,0.09,1,Rain-Thunderstorm,158
2013-5-24,90,76,62,56,54,48,78,50,24,30.11,29.89,29.77,10,10,10,20,12,26,0.00,0,,150
2013-5-25,91,78,63,60,56,48,81,56,25,30.08,29.89,29.76,10,10,7,28,10,38,0.02,1,Rain-Thunderstorm,146
2013-5-26,102,82,63,59,46,23,78,39,7,29.87,29.77,29.65,10,10,8,20,11,26,0.00,0,,170
2013-5-27,100,81,62,62,36,7,81,33,4,29.74,29.65,29.55,10,10,10,21,7,26,0.00,0,,220
2013-5-28,100,82,64,63,47,5,78,43,4,29.60,29.52,29.40,10,10,9,22,9,29,0.00,0,,164
2013-5-29,93,81,69,62,31,16,76,25,7,29.54,29.48,29.43,10,10,7,25,13,38,0.00,0,,234
2013-5-30,99,86,72,32,27,20,23,12,6,29.65,29.58,29.49,10,10,10,25,15,28,0.00,0,,259
2013-5-31,102,84,69,36,25,15,24,11,4,29.71,29.60,29.51,10,10,10,21,10,28,0.00,0,,248